Flight Track Log - Related Links

Times and Time Zones

All times are in EDT time to prevent confusion due to time zone crossing. See the N43812 flight status page for this flight to view local times or setup timezone preferences in your user account.

Time Position Orientation Groundspeed Altitude Reporting Facility
EDT Latitude Longitude Course Direction KTS MPH feet Rate Location/Type
Thu 03:47:31 PM 42.2936 -73.7219 198° South 88 101 2,500  Level Boston Center
Thu 03:48:37 PM 42.2633 -73.7350 198° South 102 117 3,000 340 Climbing Boston Center
Thu 03:49:17 PM 42.2458 -73.7406 193° South 110 127 3,100 98 Climbing Boston Center
Thu 03:49:38 PM 42.2311 -73.7472 199° South 127 146 3,100  Level Boston Center
Thu 03:50:17 PM 42.2119 -73.7542 195° South 125 144 3,100  Level Boston Center
Thu 03:50:38 PM 42.1989 -73.7594 197° South 125 144 3,100 -98 Level Boston Center
Thu 03:51:18 PM 42.1778 -73.7686 198° South 121 139 3,000 -98 Descending Boston Center
Thu 03:51:39 PM 42.1664 -73.7719 192° South 119 137 3,000 95 Level Boston Center
Thu 03:52:21 PM 42.1469 -73.7800 197° South 116 133 3,100 100 Climbing Boston Center
Thu 03:52:39 PM 42.1361 -73.7847 198° South 116 133 3,100 -100 Level Boston Center
Thu 03:53:21 PM 42.1147 -73.7936 197° South 120 138 3,000  Descending Boston Center
Thu 03:53:40 PM 42.1039 -73.7969 193° South 119 137 3,100 97 Climbing Boston Center
Thu 03:54:23 PM 42.0828 -73.8053 196° South 112 129 3,100 -58 Level Boston Center
Thu 03:55:23 PM 42.0497 -73.8192 197° South 121 139 3,000 -48 Descending Boston Center
Thu 03:56:27 PM 42.0183 -73.8311 196° South 119 137 3,000  Level Boston Center
Thu 03:57:27 PM 41.9872 -73.8447 198° South 118 136 3,000 48 Level Boston Center
Thu 03:58:31 PM 41.9522 -73.8581 196° South 122 140 3,100 48 Climbing Boston Center
Thu 03:59:32 PM 41.9203 -73.8708 197° South 121 139 3,100 -50 Level Boston Center
Thu 04:00:32 PM 41.8900 -73.8833 197° South 113 130 3,000  Descending Boston Center
Thu 04:01:35 PM 41.8569 -73.8978 198° South 116 133 3,100  Climbing Boston Center
Thu 04:02:36 PM 41.8253 -73.9089 195° South 118 136 3,000  Descending Boston Center
Thu 04:03:36 PM 41.7933 -73.9214 196° South 119 137 3,100  Climbing Boston Center
Thu 04:04:40 PM 41.7594 -73.9353 197° South 117 135 3,000  Descending Boston Center
Thu 04:05:40 PM 41.7308 -73.9469 197° South 110 127 3,100 50 Climbing Boston Center
Thu 04:06:41 PM 41.7006 -73.9589 196° South 112 129 3,100  Level Boston Center
Thu 04:07:44 PM 41.6683 -73.9722 197° South 114 131 3,100  Level Boston Center
Thu 04:08:44 PM 41.6367 -73.9842 196° South 117 135 3,100  Level Boston Center
Thu 04:09:45 PM 41.6069 -73.9956 196° South 113 130 3,100  Level Boston Center
Thu 04:10:49 PM 41.5747 -74.0031 190° South 116 133 3,100  Level Boston Center
Thu 04:11:49 PM 41.5394 -74.0114 190° South 119 137 3,100 -50 Level Boston Center
Thu 04:12:49 PM 41.5086 -74.0175 188° South 112 129 3,000 -48 Descending Boston Center
Thu 04:13:54 PM 41.4767 -74.0258 191° South 115 132 3,000  Level Boston Center
Thu 04:14:54 PM 41.4447 -74.0353 192° South 117 135 3,000 50 Level Boston Center
Thu 04:15:55 PM 41.4097 -74.0442 191° South 117 135 3,100  Climbing Boston Center
Thu 04:16:55 PM 41.3753 -74.0506 188° South 124 143 3,000 -48 Descending Boston Center
Thu 04:17:59 PM 41.3394 -74.0547 185° South 127 146 3,000 48 Level Boston Center
Thu 04:18:59 PM 41.3053 -74.0631 190° South 126 145 3,100  Climbing Boston Center
Thu 04:20:00 PM 41.2717 -74.0808 202° Southwest 121 139 3,000 48 Descending Boston Center
Thu 04:21:04 PM 41.2392 -74.0983 202° Southwest 125 144 3,200 45 Climbing Boston Center
Thu 04:22:13 PM 41.2000 -74.1167 199° South 128 147 3,100 -140 Descending New York TRACON
Thu 04:23:13 PM 41.1667 -74.1333 201° Southwest 131 151 2,900 -250 Descending New York TRACON
Thu 04:24:13 PM 41.1333 -74.1500 201° Southwest 130 150 2,600 -150 Descending New York TRACON
Thu 04:25:13 PM 41.1000 -74.1667 201° Southwest 126 145 2,600  Level New York TRACON
Thu 04:26:13 PM 41.0667 -74.1833 201° Southwest 113 130 2,600 50 Level New York TRACON
Thu 04:27:13 PM 41.0333 -74.2000 201° Southwest 115 132 2,700  Climbing New York TRACON
Thu 04:28:13 PM 41.0167 -74.2167 217° Southwest 115 132 2,600 -300 Descending New York TRACON
Thu 04:29:13 PM 40.9833 -74.2333 201° Southwest 124 143 2,100 -450 Descending New York TRACON
Thu 04:30:13 PM 40.9500 -74.2333 180° South 125 144 1,700 -350 Descending New York TRACON
Thu 04:31:13 PM 40.9167 -74.2333 180° South 110 127 1,400 -353 Descending New York TRACON
Thu 04:32:12 PM 40.8833 -74.2333 180° South 96 110 1,000 -407 Descending New York TRACON

Login

Don't have an account? Register now (free) for customized features, flight alerts, and more!